Regional Weather Roundup
Issued by NWS

Home | Current Version | Previous Version | Text Only | Print | Product List | Glossary Off
Versions: 1 2 3 4 5 6 7 8 9 10 11 12 13 14 15 16 17 18 19 20 21 22 23 24 25 26 27 28 29 30 31 32 33 34 35 36 37 38 39 40 41 42 43 44 45 46 47 48 49 50

670
ASUS43 KDMX 260506
RWRIA

WEATHER ROUNDUP FOR IOWA
NATIONAL WEATHER SERVICE DES MOINES IA
1200 AM CDT WED APR 26 2017

NOTE: "FAIR" INDICATES FEW OR NO CLOUDS BELOW 12,000 FEET WITH NO
SIGNIFICANT WEATHER AND/OR OBSTRUCTIONS TO VISIBILITY.

* - THESE STATIONS ARE NOT NWS STATIONS...THUS NOT UNDER NWS
QUALITY CONTROL.  THEY ALSO DO NOT REPORT WEATHER SUCH
AS PRECIPITATION OR FOG.

IAZ001>003-012>014-020>022-031>034-043>046-260600-
   NORTHWEST IOWA

CITY           SKY/WX    TMP DP  RH WIND       PRES   REMARKS
CARROLL *      CLOUDY    43  43 100 NW20      29.53F
CHEROKEE *     LGT RAIN  39  39 100 NW9       29.59S WCI  33
DENISON *      LGT RAIN  41  41 100 N13G20    29.58F
LE MARS *      CLOUDY    39  37  93 NW10G17   29.64S WCI  32
ORANGE CITY *  DRIZZLE   37  37 100 NW13G21   29.60F WCI  29
SHELDON *      LGT RAIN  39  37  93 NW20      29.58S WCI  30
SIOUX CITY     CLOUDY    39  38  96 NW24G30   29.62F WCI  28
SPENCER        LGT RAIN  41  40  96 N16       29.55F
STORM LAKE *   CLOUDY    41  39  93 NW13      29.56S
$$

IAZ055>058-069>071-079>083-090>094-260600-
   SOUTHWEST IOWA

CITY           SKY/WX    TMP DP  RH WIND       PRES   REMARKS
ATLANTIC *     CLOUDY    43  43 100 NW16G23   29.55F
AUDUBON *      CLOUDY    43  39  87 NW13G21   29.55S
CLARINDA *       N/A     46  45  93 N12       29.57S
COUNCIL BLFS * CLOUDY    41  41 100 NW17G23   29.57F
CRESTON *      CLOUDY    45  45 100 NW16G23   29.53S
HARLAN  *      LGT RAIN  43  41  93 N21       29.59F
LAMONI         LGT RAIN  49  47  93 NW20G25   29.51R
RED OAK *      CLOUDY    45  41  87 N13G22    29.56F
SHENANDOAH *   CLOUDY    45  41  87 N12G20    29.57F
$$

IAZ047>049-059>061-072>074-084-260600-
   CENTRAL IOWA

CITY           SKY/WX    TMP DP  RH WIND       PRES   REMARKS
AMES           CLOUDY    49  47  93 NW18      29.48S
ANKENY *       CLOUDY    50  46  87 NW10G17   29.50R
BOONE *        CLOUDY    46  46 100 NW14      29.48F
CHARITON *     CLOUDY    50  46  87 NW16      29.47F
DES MOINES     CLOUDY    50  45  83 NW20      29.50R
GRINNELL*      CLOUDY    61  53  74 W8        29.46S
KNOXVILLE *    MOCLDY    54  48  82 W17       29.46S
MARSHALLTOWN   CLOUDY    56  53  90 NW13      29.43S
NEWTON *       CLOUDY    54  48  82 NW12      29.45S
PELLA *        CLOUDY    56  51  82 W15       29.48R
PERRY *        CLOUDY    47  44  90 NW14G21   29.52F
$$

IAZ004>006-015-016-023>025-035-036-260600-
   NORTH CENTRAL IOWA

CITY           SKY/WX    TMP DP  RH WIND       PRES   REMARKS
ALGONA *       LGT RAIN  45  45 100 NW16G23   29.51S
CLARION *      CLOUDY    46  46 100 NW16      29.49S
ESTHERVILLE    LGT RAIN  41  41 100 NW17      29.53F
FORT DODGE *   CLOUDY    45  39  81 NW8       29.52F
MASON CITY     RAIN      52  51  97 N7        29.48S FOG
FOREST CITY *  DRIZZLE   46  46 100 NW6       29.48R
WEBSTER CITY * CLOUDY    46  46 100 NW14      29.47F
IOWA FALLS *   CLOUDY    53  50  89 NW12      29.47S
$$

IAZ007>011-017>019-026>030-037>042-050>054-066-260600-
   NORTHEAST IOWA

CITY           SKY/WX    TMP DP  RH WIND       PRES   REMARKS
CEDAR RAPIDS   MOCLDY    61  57  87 N7        29.42F
CHARLES CITY * CLOUDY    55  55 100 N7        29.45S
CLINTON *      CLOUDY    68  51  54 SE17      29.45F
DECORAH *      CLOUDY    59  52  77 E8G15     29.45S
DUBUQUE        LGT RAIN  62  53  72 SW5       29.47R
MONTICELLO *   CLOUDY    61  54  77 NE6       29.44F
OELWEIN *      CLOUDY    59  57  94 SE9       29.45F
WATERLOO       CLOUDY    63  53  70 S6        29.42F
$$

IAZ064-065-067-068-078-260600-
   EAST CENTRAL IOWA

CITY           SKY/WX    TMP DP  RH WIND       PRES   REMARKS
DAVENPORT      CLOUDY    69  49  48 SE18      29.44F
IOWA CITY      MOCLDY    64  54  69 CALM      29.43F
MT. PLEASANT * CLOUDY    66  51  58 W3        29.45R
MUSCATINE *    CLOUDY    72  48  43 S12       29.43S
QUAD CITIES    CLOUDY    70  49  47 S14       29.43F
$$

IAZ062-063-075>077-085>089-095>099-260600-
   SOUTHEAST IOWA

CITY           SKY/WX    TMP DP  RH WIND       PRES   REMARKS
BURLINGTON     CLOUDY    69  52  54 S10       29.43F
FAIRFIELD *    CLOUDY    63  54  72 CALM      29.43F
FORT MADISON * CLOUDY    70  52  52 S9        29.45S
KEOKUK *       CLOUDY    70  52  52 S5        29.44S
OSKALOOSA *      N/A     60  55  85 W6        29.44F
CENTERVILLE *    N/A     59  54  82 W3        29.47S
OTTUMWA        MOCLDY    61  57  87 W6        29.43F
WASHINGTON *   CLOUDY    64  55  72 SW7G13    29.44S
$$

ABBREVIATIONS USED IN REMARKS
   TC - TEMPERATURES IN CELSIUS
  WCI - WIND CHILL INDEX
   HX - HEAT INDEX
  VSB - VISIBILITY
$$





USA.gov is the U.S. government's official web portal to all federal, state and local government web resources and services.